Stations météo

Publicité
Socoa, France (7600): Température de l'air & dewpoint: 17.01.2017 05:00:00 - 23.01.2017 05:00:00 (CET)Socoa, France (7600): Vitesse du vent & gusts: 17.01.2017 05:00:00 - 23.01.2017 05:00:00 (CET)Socoa, France (7600): Direction du vent: 17.01.2017 05:00:00 - 23.01.2017 05:00:00 (CET)Socoa, France (7600): reduced air pressure: 17.01.2017 05:00:00 - 23.01.2017 05:00:00 (CET)Socoa, France (7600): visibility: 17.01.2017 05:00:00 - 23.01.2017 05:00:00 (CET)Socoa, France (7600): Quantités de précipitations: 17.01.2017 05:00:00 - 23.01.2017 05:00:00 (CET)
Date & Time tt [°C] td [°C] ff [km/h] ff [knt] fx [km/h] fx [knt] dd ppp [hPa] vv [km] rr [mm]
23.01.2017 05:00:00 2,3 1,7 18 10 21 11 SW 1022,5 - 0,0
23.01.2017 04:00:00 1,0 0,1 11 6 16 9 SSW 1022,6 15 0,0
23.01.2017 03:00:00 1,0 0,0 9 5 15 8 S 1022,5 - 0,0
23.01.2017 02:00:00 1,6 0,6 7 4 16 9 S 1022,5 - 0,0
23.01.2017 01:00:00 1,7 0,4 14 8 16 9 S 1022,7 - 0,0
23.01.2017 00:00:00 1,9 0,4 15 8 16 9 SSW 1023,0 - 0,0
22.01.2017 23:00:00 2,0 0,5 12 6 14 7 SSW 1022,8 - 0,0
22.01.2017 22:00:00 2,7 0,6 8 5 12 6 SW 1022,5 15 0,0
22.01.2017 21:00:00 3,9 2,1 10 5 12 6 SSW 1022,4 - 0,0
22.01.2017 20:00:00 4,8 2,5 9 5 14 7 WSW 1022,5 - 0,0
22.01.2017 19:00:00 7,5 4,3 4 2 17 9 SSW 1022,1 15 0,0
22.01.2017 18:00:00 9,4 5,0 7 4 22 12 NNW 1021,6 - 0,0
22.01.2017 17:00:00 10,0 5,2 9 5 23 12 NW 1021,5 - 0,0
22.01.2017 16:00:00 10,0 5,4 21 11 35 19 W 1021,0 - 0,0
22.01.2017 15:00:00 9,7 5,5 5 3 14 7 SW 1021,4 - 0,0
22.01.2017 14:00:00 9,0 5,2 9 5 13 7 SW 1021,6 - 0,0
22.01.2017 13:00:00 7,4 5,0 7 4 20 11 SSE 1022,4 - 0,0
22.01.2017 12:00:00 5,6 4,2 4 2 10 6 WNW 1023,1 - 0,0
22.01.2017 11:00:00 3,5 2,6 9 5 11 6 SSW 1022,6 - 0,2
22.01.2017 10:00:00 1,8 0,9 9 5 14 8 SW 1022,3 - 0,0
22.01.2017 09:00:00 1,8 0,9 6 4 17 9 WSW 1021,8 - 0,0
22.01.2017 08:00:00 1,9 1,2 9 5 16 8 SW 1021,6 - 0,0
22.01.2017 07:00:00 0,9 0,0 10 6 16 9 S 1021,4 15 0,0
22.01.2017 06:00:00 0,8 -0,2 13 7 18 10 SSW 1021,6 - 0,0
22.01.2017 05:00:00 0,4 -0,6 15 8 19 10 SW 1021,6 - 0,0
22.01.2017 04:00:00 0,2 -0,9 13 7 16 9 SSW 1021,6 20 0,0
22.01.2017 03:00:00 0,3 -1,0 10 5 15 8 SSW 1021,8 - 0,0
22.01.2017 02:00:00 0,5 -0,8 13 7 16 9 SSW 1022,0 - 0,0
22.01.2017 01:00:00 0,4 -0,9 8 4 13 7 SSW 1022,7 - 0,0
22.01.2017 00:00:00 0,8 -0,8 6 4 16 8 S 1022,9 - 0,0
21.01.2017 23:00:00 1,3 -0,5 12 7 14 8 S 1022,6 - 0,0
21.01.2017 22:00:00 1,9 -0,2 5 3 12 6 SSW 1022,3 20 0,0
21.01.2017 21:00:00 3,0 0,2 6 3 14 8 WSW 1022,4 - 0,0
21.01.2017 20:00:00 3,7 1,1 8 4 12 6 S 1022,3 - 0,0
21.01.2017 19:00:00 4,9 1,2 4 2 8 4 S 1022,1 - 0,0
21.01.2017 18:00:00 7,5 1,6 4 2 6 3 N 1021,6 - 0,0
21.01.2017 17:00:00 9,7 1,8 3 1 7 4 NW 1021,4 - 0,0
21.01.2017 16:00:00 8,6 1,9 4 2 11 6 NNE 1021,3 - 0,0
21.01.2017 15:00:00 9,7 2,3 7 4 11 6 NE 1021,4 - 0,0
21.01.2017 14:00:00 9,6 3,3 7 4 11 6 NE 1021,6 - 0,0
21.01.2017 13:00:00 9,2 1,8 3 2 8 5 NNE 1022,3 20 0,0
21.01.2017 12:00:00 8,0 2,0 3 1 8 5 N 1022,8 - 0,0
21.01.2017 11:00:00 5,0 0,9 4 2 11 6 S 1023,1 - 0,0
21.01.2017 10:00:00 1,3 -0,3 2 1 10 5 WNW 1022,9 - 0,0
21.01.2017 09:00:00 -1,0 -2,3 11 6 16 8 S 1022,6 - 0,0
21.01.2017 08:00:00 -0,6 -1,9 14 8 18 10 S 1022,5 - 0,0
21.01.2017 07:00:00 -1,5 -2,6 8 5 11 6 S 1022,2 18 0,0
21.01.2017 06:00:00 -0,7 -2,3 7 4 14 8 S 1022,5 - 0,0
21.01.2017 05:00:00 -0,5 -1,8 10 5 14 8 S 1022,9 - 0,0
21.01.2017 04:00:00 -0,6 -1,9 10 5 18 10 S 1023,3 - 0,0
21.01.2017 03:00:00 -0,7 -2,0 13 7 16 9 SSW 1023,6 - 0,0
21.01.2017 02:00:00 -0,3 -1,6 11 6 15 8 S 1023,4 - 0,0
21.01.2017 01:00:00 -0,3 -1,6 11 6 15 8 S 1023,7 20 0,0
21.01.2017 00:00:00 -0,3 -1,3 9 5 13 7 S 1024,2 - 0,0
20.01.2017 23:00:00 -0,4 -1,7 5 3 9 5 S 1024,2 - 0,0
20.01.2017 22:00:00 0,2 -1,4 4 2 12 7 S 1024,5 - 0,0
20.01.2017 21:00:00 0,6 -1,0 9 5 12 7 S 1024,4 - 0,0
20.01.2017 20:00:00 1,2 -1,0 8 4 14 7 SE 1024,5 - 0,0
20.01.2017 19:00:00 2,4 -0,9 6 4 11 6 ESE 1024,1 20 0,0
20.01.2017 18:00:00 4,6 -0,4 6 3 19 10 SE 1023,9 - 0,0
20.01.2017 17:00:00 5,5 -0,8 4 2 11 6 NNE 1023,5 - 0,0
20.01.2017 16:00:00 5,7 -0,6 2 1 10 5 E 1023,6 - 0,0
20.01.2017 15:00:00 5,8 -1,1 6 3 12 7 NNE 1023,9 - 0,0
20.01.2017 14:00:00 6,6 -0,9 6 3 13 7 ENE 1024,2 - 0,0
20.01.2017 13:00:00 4,8 -1,0 4 2 12 7 E 1025,2 20 0,0
20.01.2017 12:00:00 2,8 -1,6 6 3 15 8 SE 1026,3 - 0,2
20.01.2017 11:00:00 1,4 -1,3 0 0 12 6 N 1026,8 - 0,0
20.01.2017 10:00:00 -0,6 -1,4 4 2 13 7 ESE 1026,5 - 0,0
20.01.2017 09:00:00 -3,2 -4,3 6 4 16 9 SSE 1026,2 - 0,0
20.01.2017 08:00:00 -3,2 -4,2 6 3 14 7 SE 1026,0 - 0,0
20.01.2017 07:00:00 -3,4 -4,5 7 4 14 8 SSE 1025,8 20 0,0
20.01.2017 06:00:00 -3,1 -4,2 11 6 16 9 S 1025,8 - 0,0
20.01.2017 05:00:00 -3,1 -4,4 11 6 15 8 SE 1026,3 - 0,0
20.01.2017 04:00:00 -2,8 -4,1 9 5 14 8 SE 1026,7 20 0,0
20.01.2017 03:00:00 -1,8 -3,1 8 5 16 9 ESE 1026,7 - 0,0
20.01.2017 02:00:00 -1,4 -2,8 10 5 14 7 ESE 1026,6 - 0,0
20.01.2017 01:00:00 -1,0 -3,0 9 5 18 10 ESE 1026,8 - 0,0
20.01.2017 00:00:00 -0,4 -3,3 11 6 19 10 SSE 1027,3 - 0,0
19.01.2017 23:00:00 -0,2 -3,1 11 6 20 11 ESE 1027,4 - 0,0
19.01.2017 22:00:00 0,4 -3,0 13 7 20 11 SE 1027,5 18 0,0
19.01.2017 21:00:00 0,5 -3,4 7 4 15 8 SE 1027,6 - 0,0
19.01.2017 20:00:00 1,6 -2,7 10 5 29 16 SE 1027,3 - 0,0
19.01.2017 19:00:00 2,6 -2,3 19 10 27 15 E 1027,1 - 0,0
19.01.2017 18:00:00 3,5 -2,5 17 9 26 14 E 1027,0 - 0,0
19.01.2017 17:00:00 5,7 -1,9 10 5 18 10 E 1026,5 - 0,0
19.01.2017 16:00:00 5,3 -2,5 4 2 14 7 SE 1026,4 25 0,0
19.01.2017 15:00:00 5,8 -2,1 5 3 10 6 W 1026,4 - 0,0
19.01.2017 14:00:00 5,5 -2,1 5 3 15 8 E 1026,6 - 0,0
19.01.2017 13:00:00 6,2 -2,2 4 2 16 8 ENE 1027,0 25 0,0
19.01.2017 12:00:00 5,1 -1,8 8 4 17 9 SE 1027,7 - 0,0
19.01.2017 11:00:00 1,9 -3,0 8 4 22 12 SE 1027,9 - 0,0
19.01.2017 10:00:00 0,5 -3,8 16 9 22 12 ESE 1027,9 15 0,0
19.01.2017 09:00:00 0,1 -4,0 14 7 23 12 SE 1027,7 - 0,0
19.01.2017 08:00:00 0,1 -3,1 14 7 21 11 ESE 1027,4 - 0,0
19.01.2017 07:00:00 0,0 -3,2 11 6 15 8 SE 1027,3 15 0,0
19.01.2017 06:00:00 0,0 -3,6 6 4 19 10 SE 1027,4 - 0,0
19.01.2017 05:00:00 -0,1 -3,8 13 7 23 12 SE 1027,9 - 0,0
19.01.2017 04:00:00 -0,1 -3,8 14 8 23 12 ESE 1028,1 - 0,0
19.01.2017 03:00:00 0,0 -4,3 14 8 21 12 SE 1028,4 - 0,0
19.01.2017 02:00:00 0,1 -4,0 13 7 21 12 ESE 1028,2 - 0,0
19.01.2017 01:00:00 0,2 -4,4 13 7 19 10 SE 1028,4 - 0,0
19.01.2017 00:00:00 0,3 -4,5 12 6 20 11 ESE 1028,4 - 0,0
18.01.2017 23:00:00 0,2 -4,6 13 7 22 12 ESE 1028,2 - 0,0
18.01.2017 22:00:00 0,2 -4,8 15 8 26 14 SE 1028,6 - 0,0
18.01.2017 21:00:00 0,4 -4,6 13 7 30 16 ESE 1028,6 - 0,0
18.01.2017 20:00:00 0,4 -5,2 19 10 28 15 ESE 1028,4 - 0,0
18.01.2017 19:00:00 0,3 -5,3 15 8 26 14 SE 1028,1 - 0,0
18.01.2017 18:00:00 0,5 -4,7 12 7 28 15 ESE 1027,8 - 0,0
18.01.2017 17:00:00 0,6 -4,2 21 11 30 16 E 1027,7 - 0,0
18.01.2017 16:00:00 0,8 -4,1 7 4 14 8 SE 1027,3 - 0,0
18.01.2017 15:00:00 0,7 -4,5 4 2 12 7 S 1027,2 - 0,0
18.01.2017 14:00:00 0,1 -3,8 6 3 13 7 SE 1027,4 - 0,0
18.01.2017 13:00:00 -0,6 -4,1 7 4 15 8 SSE 1027,9 - 0,0
18.01.2017 12:00:00 -1,2 -4,5 4 2 16 9 SSE 1028,7 - 0,0
18.01.2017 11:00:00 -1,5 -5,0 11 6 21 11 ESE 1028,9 - 0,0
18.01.2017 10:00:00 -1,8 -5,6 11 6 21 11 E 1028,8 - 0,0
18.01.2017 09:00:00 -1,8 -5,6 10 5 21 11 E 1028,6 - 0,0
18.01.2017 08:00:00 -1,8 -5,6 11 6 23 13 E 1028,5 - 0,0
18.01.2017 07:00:00 -1,6 -5,8 16 9 31 17 E 1028,2 - 0,0
18.01.2017 06:00:00 -1,1 -5,3 16 9 32 17 E 1028,4 - 0,0
18.01.2017 05:00:00 -1,0 -5,2 21 12 32 17 E 1028,4 - 0,0
18.01.2017 04:00:00 -1,1 -5,3 16 8 29 16 E 1028,6 - 0,0
18.01.2017 03:00:00 -0,7 -5,5 22 12 35 19 E 1028,7 - 0,0
18.01.2017 02:00:00 -0,4 -5,4 21 11 33 18 E 1028,7 - 0,0
18.01.2017 01:00:00 -0,2 -5,4 20 11 32 17 E 1029,2 20 0,0
18.01.2017 00:00:00 0,3 -5,1 12 7 20 11 ESE 1029,4 - 0,0
17.01.2017 23:00:00 1,0 -5,5 18 10 37 20 E 1029,5 - 0,0
17.01.2017 22:00:00 1,6 -5,6 26 14 44 24 E 1029,6 - 0,0
17.01.2017 21:00:00 2,5 -5,4 31 17 56 30 ENE 1029,6 - 0,0
17.01.2017 20:00:00 4,0 -3,5 36 19 58 31 NE 1029,0 - 0,0
17.01.2017 19:00:00 4,8 -5,9 37 20 54 29 NE 1028,4 20 0,0
17.01.2017 18:00:00 5,7 -3,4 38 20 51 28 NNE 1028,3 - 0,0
17.01.2017 17:00:00 5,6 -2,7 26 14 41 22 N 1028,4 - 0,0
17.01.2017 16:00:00 5,1 -2,5 8 5 24 13 N 1028,7 - 0,0
17.01.2017 15:00:00 5,0 -3,3 14 8 28 15 N 1028,8 - 0,0
17.01.2017 14:00:00 4,8 -4,2 15 8 24 13 N 1029,2 - 0,0
17.01.2017 13:00:00 5,2 -2,6 6 3 18 10 NNE 1029,9 20 0,0
17.01.2017 12:00:00 4,8 -1,7 5 3 18 10 ENE 1030,5 - 0,0
17.01.2017 11:00:00 3,6 -1,8 8 4 21 11 E 1030,4 - 0,0
17.01.2017 10:00:00 2,3 -1,1 8 4 20 11 ESE 1029,9 - 0,0
17.01.2017 09:00:00 0,4 -1,4 11 6 21 12 E 1029,2 - 0,0
17.01.2017 08:00:00 0,6 -1,5 6 3 29 15 E 1028,7 - 0,0
17.01.2017 07:00:00 1,5 -1,2 23 12 39 21 E 1028,0 15 0,0
17.01.2017 06:00:00 2,4 0,1 24 13 41 22 E 1027,4 - 0,0
17.01.2017 05:00:00 3,3 1,2 26 14 39 21 ENE 1027,3 - 0,0

tt = Température de l'air
td = dewpoint
ff = Vitesse du vent
fx = gusts
dd = Direction du vent
ppp = reduced air pressure
vv = visibility
rr = Quantités de précipitations

stations d'obs. à proximité